格洛纳斯-763 COSMOS 2295 [GLONASS]

导读 | 豆包AI

COSMOS 2295是前苏联解体后独立国家联合体(CIS)发射的一颗格洛纳斯(GLONASS)导航卫星,于1994年11月20日点火升空。作为全球卫星导航系统格洛纳斯的组网卫星之一,它运行在平均高度约19100公里、倾角64.8°的中地球轨道,周期约11小时15分,为军民用户提供独立定位导航服务,是该系统早期补网组网的重要组成。

基本信息
目录编号:
23396
目录名称:
COSMOS 2295 (GLONASS)
国际标识:
1994-076A
轨道中心:
EARTH
卫星名称:
格洛纳斯-763
卫星全名:
格洛纳斯-763 COSMOS 2295 [GLONASS]
卫星状态:
在轨 (已飞行11437 天)
发射日期:
1994-11-20 UTC
国别 :
俄罗斯(独联体) (CIS)
星等 :
--
轨道信息
数据来源 国际轨道数据 AOE轨道数据
星历时间 2026-03-13T19:08:27+0800
16小时前
查看轨道信息
2026-03-12T04:00:00+0800
2天前
查看轨道信息
半长轴 25507.977km 25507.961km
偏心率 0.0037583 0.003758
轨道倾角 64.794° 64.793°
近地点辐角 205.224° 205.167°
升交点赤经 72.409° 72.465°
平近点角 337.655° 166.569°
近地点 19033.973km 19033.965km
远地点 19225.707km 19225.683km
周期 675.731分钟 675.730分钟
每日圈数 2.131026 2.131028
详细信息
平衡模式:
三轴稳定
覆盖范围:
全球
运营商:
列舍特涅夫卫星信息系统
运营商所在国:
俄罗斯
制造商(研发单位):
列舍特涅夫卫星信息系统
制造商所在国:
俄罗斯
使用方式:
暂无
卫星简介
格洛纳斯(GLONASS )是苏联/俄罗斯研制卫星导航系统。标准配置为24颗卫星,其中18颗卫星就能保证该系统为俄罗斯境内用户提供全部服务。该卫星已退役。
2D轨道图
3D轨道图
轨道高度分析图
轨道倾角分析图
轨道综合分析图
查看轨道综合分析图